Year,Month,Day,Hour,Minute,Value (Times are PST for windspeed in km/hr)
2017,11,24,11,10,5.50
2017,11,24,11,11,6.60
2017,11,24,11,12,3.10
2017,11,24,11,13,1.50
2017,11,24,11,14,5.10
2017,11,24,11,15,3.60
2017,11,24,11,16,2.60
2017,11,24,11,17,3.40
2017,11,24,11,18,3.30
2017,11,24,11,19,0.80
2017,11,24,11,20,5.20
2017,11,24,11,21,4.30
2017,11,24,11,22,0.50
2017,11,24,11,23,2.90
2017,11,24,11,24,2.80
2017,11,24,11,25,1.30
2017,11,24,11,26,1.40
2017,11,24,11,27,0.60
2017,11,24,11,28,1.50
2017,11,24,11,29,0.20
2017,11,24,11,30,2.00
2017,11,24,11,31,5.60
2017,11,24,11,32,3.00
2017,11,24,11,33,4.60
2017,11,24,11,34,2.70
2017,11,24,11,35,5.50
2017,11,24,11,36,2.60
2017,11,24,11,37,4.90
2017,11,24,11,38,3.80
2017,11,24,11,39,0.80
2017,11,24,11,40,3.10
2017,11,24,11,41,1.50
2017,11,24,11,42,1.00
2017,11,24,11,43,3.10
2017,11,24,11,44,0.10
2017,11,24,11,45,2.80
2017,11,24,11,46,2.10
2017,11,24,11,47,1.60
2017,11,24,11,48,0.50
2017,11,24,11,49,2.60
2017,11,24,11,50,0.50
2017,11,24,11,51,1.70
2017,11,24,11,52,5.00
2017,11,24,11,53,3.70
2017,11,24,11,54,2.50
2017,11,24,11,55,2.40
2017,11,24,11,56,2.40
2017,11,24,11,57,4.50
2017,11,24,11,58,2.90
2017,11,24,11,59,1.50
2017,11,24,12,00,2.30
2017,11,24,12,01,3.10
2017,11,24,12,02,4.20
2017,11,24,12,03,2.50
2017,11,24,12,04,3.60
2017,11,24,12,05,3.60
2017,11,24,12,06,2.90
2017,11,24,12,07,1.90
2017,11,24,12,08,5.70
2017,11,24,12,09,3.10
2017,11,24,12,10,0.80
2017,11,24,12,11,2.00
2017,11,24,12,12,2.70
2017,11,24,12,13,5.30
2017,11,24,12,14,5.00
2017,11,24,12,15,2.20
2017,11,24,12,16,2.70
2017,11,24,12,17,5.10
2017,11,24,12,18,3.10
2017,11,24,12,19,2.20
2017,11,24,12,20,5.60
2017,11,24,12,21,3.80
2017,11,24,12,22,2.60
2017,11,24,12,23,3.00
2017,11,24,12,24,6.40
2017,11,24,12,25,1.90
2017,11,24,12,26,2.20
2017,11,24,12,27,3.00
2017,11,24,12,28,3.00
2017,11,24,12,29,5.00
2017,11,24,12,30,3.90
2017,11,24,12,31,3.40
2017,11,24,12,32,4.80
2017,11,24,12,33,3.80
2017,11,24,12,34,0.70
2017,11,24,12,35,0.20
2017,11,24,12,36,1.20
2017,11,24,12,37,2.80
2017,11,24,12,38,0.80
2017,11,24,12,39,3.30
2017,11,24,12,40,4.60
2017,11,24,12,41,7.10
2017,11,24,12,42,4.10
2017,11,24,12,43,3.50
2017,11,24,12,44,0.50
2017,11,24,12,45,1.70
2017,11,24,12,46,3.80
2017,11,24,12,47,1.00
2017,11,24,12,48,2.30
2017,11,24,12,49,2.10
2017,11,24,12,50,0.50
2017,11,24,12,51,0.00
2017,11,24,12,52,0.90
2017,11,24,12,53,2.30
2017,11,24,12,54,3.20
2017,11,24,12,55,1.50
2017,11,24,12,56,0.00
2017,11,24,12,57,0.10
2017,11,24,12,58,0.00
2017,11,24,12,59,1.90
2017,11,24,13,00,3.80
2017,11,24,13,01,2.80
2017,11,24,13,02,2.30
2017,11,24,13,03,2.40
2017,11,24,13,04,2.10
2017,11,24,13,05,4.20
2017,11,24,13,06,5.80
2017,11,24,13,07,5.00
2017,11,24,13,08,4.50
2017,11,24,13,09,5.30
2017,11,24,13,10,2.70
2017,11,24,13,11,5.20
2017,11,24,13,12,2.00
2017,11,24,13,13,5.00
2017,11,24,13,14,4.30
2017,11,24,13,15,5.20
2017,11,24,13,16,8.00
2017,11,24,13,17,4.20
2017,11,24,13,18,6.20
2017,11,24,13,19,8.50
2017,11,24,13,20,4.80
2017,11,24,13,21,6.20
2017,11,24,13,22,3.10
2017,11,24,13,23,4.40
2017,11,24,13,24,10.10
2017,11,24,13,25,5.30
2017,11,24,13,26,6.10
2017,11,24,13,27,4.20
2017,11,24,13,28,4.90
2017,11,24,13,29,5.20
2017,11,24,13,30,3.30
2017,11,24,13,31,1.40
2017,11,24,13,32,5.50
2017,11,24,13,33,1.50
2017,11,24,13,34,4.80
2017,11,24,13,35,5.80
2017,11,24,13,36,6.20
2017,11,24,13,37,5.80
2017,11,24,13,38,7.10
2017,11,24,13,39,4.50
2017,11,24,13,40,3.80
2017,11,24,13,41,0.90
2017,11,24,13,42,2.10
2017,11,24,13,43,3.40
2017,11,24,13,44,7.60
2017,11,24,13,45,5.50
2017,11,24,13,46,6.10
2017,11,24,13,47,8.60
2017,11,24,13,48,7.80
2017,11,24,13,49,6.20
2017,11,24,13,50,4.50
2017,11,24,13,51,8.40
2017,11,24,13,52,5.30
2017,11,24,13,53,4.90
2017,11,24,13,54,2.50
2017,11,24,13,55,1.20
2017,11,24,13,56,1.60
2017,11,24,13,57,3.00
2017,11,24,13,58,0.00
2017,11,24,13,59,0.00
2017,11,24,14,00,1.50
2017,11,24,14,01,1.90
2017,11,24,14,02,5.40
2017,11,24,14,03,3.20
2017,11,24,14,04,3.80
2017,11,24,14,05,2.90
2017,11,24,14,06,0.20
2017,11,24,14,07,1.00
2017,11,24,14,08,6.20
2017,11,24,14,09,5.50
2017,11,24,14,10,3.00
2017,11,24,14,11,1.90
2017,11,24,14,12,0.50
2017,11,24,14,13,0.50
2017,11,24,14,14,0.20
2017,11,24,14,15,0.60
2017,11,24,14,16,0.00
2017,11,24,14,17,0.00
2017,11,24,14,18,0.00
2017,11,24,14,19,2.70
2017,11,24,14,20,3.00
2017,11,24,14,21,2.50
2017,11,24,14,22,1.20
2017,11,24,14,23,0.00
2017,11,24,14,24,0.00
2017,11,24,14,25,0.00
2017,11,24,14,26,0.00
2017,11,24,14,27,0.00
2017,11,24,14,28,0.50
2017,11,24,14,29,0.10
2017,11,24,14,30,0.00
2017,11,24,14,31,0.00
2017,11,24,14,32,0.00
2017,11,24,14,33,0.00
2017,11,24,14,34,0.00
2017,11,24,14,35,0.00
2017,11,24,14,36,0.00
2017,11,24,14,37,0.00
2017,11,24,14,38,0.00
2017,11,24,14,39,0.00
2017,11,24,14,40,0.00
2017,11,24,14,41,0.00
2017,11,24,14,42,0.00
2017,11,24,14,43,0.00
2017,11,24,14,44,0.00
2017,11,24,14,45,0.00
2017,11,24,14,46,0.00
2017,11,24,14,47,0.00
2017,11,24,14,48,0.00
2017,11,24,14,49,0.00
2017,11,24,14,50,0.00
2017,11,24,14,51,0.00
2017,11,24,14,52,0.00
2017,11,24,14,53,0.00
2017,11,24,14,54,2.70
2017,11,24,14,55,1.10
2017,11,24,14,56,0.30
2017,11,24,14,57,0.20
2017,11,24,14,58,0.00
2017,11,24,14,59,0.00
2017,11,24,15,00,0.00
2017,11,24,15,01,0.00
2017,11,24,15,02,0.00
2017,11,24,15,03,0.00
2017,11,24,15,04,0.00
2017,11,24,15,05,0.00
2017,11,24,15,06,0.10
2017,11,24,15,07,0.30
2017,11,24,15,08,0.60
2017,11,24,15,09,0.00
2017,11,24,15,10,0.00
2017,11,24,15,11,0.20
2017,11,24,15,12,0.30
2017,11,24,15,13,0.70
2017,11,24,15,14,1.70
2017,11,24,15,15,0.10
2017,11,24,15,16,0.00
2017,11,24,15,17,0.00
2017,11,24,15,18,0.00
2017,11,24,15,19,0.00
2017,11,24,15,20,0.00
2017,11,24,15,21,0.00
2017,11,24,15,22,0.00
2017,11,24,15,23,0.00
2017,11,24,15,24,0.00
2017,11,24,15,25,0.00
